Regional Weather Roundup
Issued by NWS

Home | Current Version | Previous Version | Text Only | Print | Product List | Glossary Off
Versions: 1 2 3 4 5 6 7 8 9 10 11 12 13 14 15 16 17 18 19 20 21 22 23 24 25 26 27 28 29 30 31 32 33 34 35 36 37 38 39 40 41 42 43 44 45 46 47 48 49 50

000
ASUS45 KTFX 010219
RWRMT
MONTANA HOURLY WEATHER ROUNDUP
NATIONAL WEATHER SERVICE GREAT FALLS MT
819 PM MDT TUE SEP 30 2014

NOTE: "FAIR" INDICATES FEW OR NO CLOUDS BELOW 12000 FEET WITH NO
SIGNIFICANT WEATHER AND/OR OBSTRUCTIONS TO VISIBILITY.

* THESE STATIONS ARE NOT UNDER NWS QUALITY CONTROL. THEY DO NOT
   REPORT WEATHER SUCH AS PRECIPITATION OR FOG.

MTZ001>007-043-010300-
WEST OF THE DIVIDE
CITY           SKY/WX    TMP DP  RH WIND       PRES   REMARKS
KALISPELL      LGT RAIN  46  43  89 W3        29.89R
MISSOULA       CLOUDY    48  41  77 SW7       29.96R
BUTTE          PTCLDY    45  32  60 N12       29.93R
MULLAN PASS    CLOUDY    32  32 100 NW7       29.97R WCI  25
* ESSEX        N/A       44  42  93 SW2        N/A
* LINCOLN      N/A       45  35  68 SW5G16     N/A
* LOOKOUT PASS N/A       37  35  92 E2G8       N/A
* POLSON       N/A       47  37  68 E1G6       N/A
* RONAN APT    PTCLDY    52  43  72 N/A        N/A
* SEELEY LAKE  N/A       46  36  68 NW1G12     N/A
* THOMP F APT  MOCLDY    42  35  76 NW9G20     N/A
* YAAK HILL    N/A       49  42  77 E2         N/A
$$

MTZ008-052>055-010300-
SOUTHWEST MONTANA
CITY           SKY/WX    TMP DP  RH WIND       PRES   REMARKS
BOZEMAN        CLOUDY    50  41  71 W9        29.86R
DILLON         CLOUDY    46  30  54 NW6       29.90R
W YELLOWSTONE  CLOUDY    41  39  93 SW5       29.90R
* THREE FORKS  PTCLDY    52  45  77 NW18G26    N/A
* BOULDER HILL N/A       43  23  45 N6G14      N/A
* MONIDA PASS  N/A       40  36  86 NW11G16    N/A   WCI  33
* RAYNOLDS PAS N/A       40  39  96 N9         N/A   WCI  34
* WHITEHALL    N/A       51  29  43 NW8G20     N/A
* WISE RIVER   N/A       44  27  51 W11G22     N/A
$$

MTZ009>010-012-014-046-048-049-054-010300-
EAST SLOPES AND CENTRAL MONTANA
CITY           SKY/WX    TMP DP  RH WIND       PRES   REMARKS
CUT BANK       CLOUDY    45  43  93 NW16      29.86R
GREAT FALLS    CLOUDY    48  45  89 N12       29.84R
HELENA         CLOUDY    52  34  50 NW16G21   29.86R
MALMSTROM AFB  LGT RAIN  50  46  86 NW6       29.85R
* CONRAD       CLOUDY    46  46 100 W10        N/A
* DEARBORN     N/A       55  36  49 S5G12      N/A
* EAST GLACIER N/A       40  37  89 NE9        N/A   WCI  34
* MONARCH      N/A       41  38  89 NW14G20    N/A
* PENDROY      N/A       46  44  93 VRB13G20    N/A
* ROGERS PASS  N/A       42  34  73 SE8        N/A
* SAINT MARY   N/A       40  38  93 NE6G15     N/A   WCI  36
* SWEET GRASS  N/A       44  44 100 NW18G25    N/A
* WHITE SULPH  N/A       47  34  61 NW12G18    N/A
$$

MTZ011-013-016-021-035-040-045-047-050-051-010300-
NORTH CENTRAL MONTANA
CITY           SKY/WX    TMP DP  RH WIND       PRES   REMARKS
HAVRE          LGT RAIN  52  46  80 NW16      29.73R
LEWISTOWN      RAIN      50  46  86 W16G29    29.78R
* CHINOOK      CLOUDY    55  46  72 W13G23    29.70R
* FORT BENTON  CLOUDY    52  45  77 W10       29.82R
* CHESTER      N/A       49  42  77 NW16G25    N/A
* DENTON       N/A       51  48  90 NW17G24    N/A
* GEYSER       N/A       46  44  93 NW22G32    N/A
* JUDITH GAP   N/A       49  43  80 NW8G14     N/A
* LOMA         N/A       52  45  77 NW12G19    N/A
$$

MTZ017>020-022>027-061-062-010300-
NORTHEAST MONTANA
CITY           SKY/WX    TMP DP  RH WIND       PRES   REMARKS
GLASGOW        CLOUDY    55  52  90 W8        29.56R
GLENDIVE       CLOUDY    54  54 100 CALM      29.55F
JORDAN         CLOUDY    61  46  58 NW18G30   29.61R
SIDNEY         CLOUDY    54  54 100 CALM      29.53S
WOLF POINT     LGT RAIN  55  54  96 SW3       29.53R
* BEAVER HILL  N/A       51  51 100 N/A        N/A
* CIRCLE       N/A       57  53  87 SW3        N/A
* LINDSAY DVD  N/A       52  52 100 W3         N/A
* NAVAJO       N/A       53  52  96 SW4        N/A
$$

MTZ028>042-056>058-010300-
SOUTHCENTRAL AND SOUTHEAST MONTANA
CITY           SKY/WX    TMP DP  RH WIND       PRES   REMARKS
BAKER          CLOUDY    52  52 100 W7        29.57R
BILLINGS       CLOUDY    57  37  47 W14       29.73R
LIVINGSTON     CLOUDY    50  41  71 W15       29.82R
MILES CITY     CLOUDY    57  48  72 W9        29.59R
* LAUREL APT   CLOUDY    57  37  47 SW8        N/A
* ROUNDUP APT  CLOUDY    57  43  60 W21        N/A
* ALZADA       N/A       55  48  77 W9         N/A
* HYSHAM       N/A       51  45  80 W9         N/A
* LAME DEER    N/A       50  45  83 N/A        N/A
* REED POINT   N/A       54  36  51 W6G11      N/A
* ROSCOE HILL  N/A       50  26  39 W9G22      N/A
$$

REGIONAL REPORTS...DAKOTAS
CITY           SKY/WX    TMP DP  RH WIND       PRES   REMARKS
WILLISTON      LGT RAIN  52  50  93 NE3       29.51F
DICKINSON      CLOUDY    52  48  86 NW10      29.48R
BEACH          LGT RAIN  50  50 100 NW14      29.54R
CROSBY         N/A      N/A N/A N/A N/A        N/A
TIOGA          FOG       48  48 100 NE3       29.54F
WATFORD CITY   LGT RAIN  50  50 100 N3        29.49S VSB 3
BISMARCK       LGT RAIN  55  55 100 E9        29.36S
GRAND FORKS    CLOUDY    57  48  72 SE15      29.64S
FARGO          CLOUDY    61  48  62 SE20G32   29.64S
BUFFALO SD     MOCLDY    54  52  93 W18       29.51R
RAPID CITY     PTCLDY    57  43  60 SW3       29.66R
$$

REGIONAL REPORTS...WYOMING/IDAHO/WASHINGTON
CITY           SKY/WX    TMP DP  RH WIND       PRES   REMARKS
GILLETTE       CLOUDY    52  45  77 W9        29.73R
SHERIDAN       CLOUDY    54  45  72 N9        29.74R
CODY           CLOUDY    50  45  83 CALM      29.80R
YELLOWSTONE LA CLOUDY    36  34  92 CALM      29.93R
SALMON         CLOUDY    48  34  59 N5        29.96R
MULLAN PASS    CLOUDY    32  32 100 NW7       29.97S WCI  25
SAND POINT     MOCLDY    46  46 100 W3        29.93R
SPOKANE        PTCLDY    57  39  51 NE5       29.94R
$$

REGIONAL REPORTS...ALBERTA
CITY           SKY/WX    TMP DP  RH WIND       PRES   REMARKS
CALGARY        PTCLDY    48  37  66 W7        29.83R
LETHBRIDGE     LGT RAIN  46  43  89 W7        29.85R
MEDICINE HAT   LGT RAIN  48  46  93 W7        29.78R
EDMONTON       MOCLDY    50  36  59 NW8       29.77R
WATERTON GATE  N/A       39  37  93 SW2        N/A
CARDSTON       N/A       43  43 100 W5         N/A
MILK RIVER     N/A       45  41  86 NW14       N/A
$$

REGIONAL REPORTS...SASKATCHEWAN
CITY           SKY/WX    TMP DP  RH WIND       PRES   REMARKS
SWIFT CURRENT  CLOUDY    52  48  86 NW23      29.60R
REGINA         LGT RAIN  50  50 100 SE10      29.54S
VAL MARIE      N/A       54  48  80 NW15G21    N/A
ASSINIBOIA     N/A       55  50  83 NW12       N/A
CORONACH       N/A       54  52  93 NW6        N/A

$$



USA.gov is the U.S. government's official web portal to all federal, state and local government web resources and services.